This demonstration page uses our WeatherBlox Daily Observations layout. Learn more.

Left ArrowRight Arrow

39.51506, -84.39828

Hourly Observations for January 21, 2022

Temp ( °F °C ) Dew Point ( °F °C ) Humidity (%) Winds ( mph kmh ) Pressure ( in mb ) Visibility ( mi km ) Precip ( " mm )
12:15 am 00:15 Cloudy 20 -6.7 5 -15.1 52 52 ENE 9 15 30.58 1036 10 16 0.00 0.00
12:35 am 00:35 Cloudy 20 -6.8 6 -14.7 54 54 E 9 15 30.57 1035 10 16 0.00 0.00
12:55 am 00:55 Cloudy 20 -6.8 5 -15.1 52 52 ESE 9 15 30.57 1035 10 16 0.00 0.00
1:15 am 01:15 Cloudy 20 -6.8 4 -15.6 50 50 ESE 7 11 30.56 1035 10 16 0.00 0.00
1:35 am 01:35 Cloudy 20 -6.9 4 -15.8 50 50 E 9 15 30.57 1035 10 16 0.00 0.00
1:55 am 01:55 Cloudy 20 -6.8 4 -15.5 50 50 E 7 11 30.56 1035 10 16 0.00 0.00
2:15 am 02:15 Cloudy 20 -6.8 7 -13.9 57 57 E 10 17 30.56 1035 10 16 0.00 0.00
2:35 am 02:35 Cloudy 20 -6.9 6 -14.6 55 55 SE 7 11 30.57 1035 10 16 0.00 0.00
2:55 am 02:55 Cloudy 19 -7 5 -14.9 54 54 E 9 15 30.57 1035 10 16 0.00 0.00
3:15 am 03:15 Cloudy 19 -7.1 7 -14 58 58 E 6 9 30.57 1035 10 16 0.00 0.00
3:35 am 03:35 Cloudy 19 -7.1 7 -13.8 59 59 E 6 9 30.57 1035 10 16 0.00 0.00
3:55 am 03:55 Cloudy 19 -7 6 -14.6 55 55 E 8 13 30.57 1035 10 16 0.00 0.00
4:15 am 04:15 Cloudy 19 -7 6 -14.6 55 55 E 8 13 30.57 1035 10 16 0.00 0.00
4:35 am 04:35 Cloudy 20 -6.9 6 -14.3 56 56 E 8 13 30.57 1035 10 16 0.00 0.00
4:55 am 04:55 Cloudy 19 -7.1 5 -15.1 53 53 ESE 7 11 30.58 1035 10 16 0.00 0.00
5:15 am 05:15 Cloudy 19 -7.2 7 -14 59 59 E 12 19 30.58 1035 10 16 0.00 0.00
5:35 am 05:35 Cloudy 19 -7.3 7 -13.8 60 60 E 8 13 30.58 1035 10 16 0.00 0.00
5:55 am 05:55 Cloudy 19 -7.5 7 -13.8 61 61 ENE 9 15 30.58 1035 10 16 0.00 0.00
6:15 am 06:15 Cloudy 18 -7.6 7 -14 61 61 E 12 19 30.59 1036 10 16 0.00 0.00
6:35 am 06:35 Cloudy 19 -7.5 7 -13.8 61 61 E 10 17 30.59 1036 10 16 0.00 0.00
6:55 am 06:55 Cloudy 18 -7.6 8 -13.4 64 64 E 8 13 30.60 1036 10 16 0.00 0.00
7:15 am 07:15 Cloudy 18 -7.7 8 -13.3 65 65 E 9 15 30.62 1037 10 16 0.00 0.00
7:35 am 07:35 Cloudy 18 -7.8 8 -13.1 66 66 E 9 15 30.62 1037 10 16 0.00 0.00
7:55 am 07:55 Cloudy 17 -8.1 8 -13.1 68 68 E 9 15 30.62 1037 10 16 0.00 0.00
8:15 am 08:15 Cloudy 18 -8 9 -12.9 68 68 E 10 17 30.62 1037 10 16 0.00 0.00
8:35 am 08:35 Cloudy 18 -8 9 -13 68 68 E 8 13 30.63 1037 10 16 0.00 0.00
8:55 am 08:55 Cloudy 18 -7.8 8 -13.1 66 66 E 8 13 30.63 1037 10 16 0.00 0.00
9:15 am 09:15 Cloudy 18 -7.7 9 -13 66 66 E 9 15 30.64 1038 10 16 0.00 0.00
9:35 am 09:35 Cloudy 19 -7.1 9 -12.7 65 65 E 8 13 30.64 1037 10 16 0.00 0.00
9:55 am 09:55 Mostly Cloudy 20 -6.6 9 -12.7 62 62 ESE 9 15 30.63 1037 10 16 0.00 0.00
10:15 am 10:15 Mostly Cloudy 21 -6.3 8 -13.2 58 58 ESE 12 19 30.63 1037 10 16 0.00 0.00
10:35 am 10:35 Mostly Cloudy 21 -6.3 7 -14 55 55 SE 12 19 30.63 1037 10 16 0.00 0.00
10:55 am 10:55 Cloudy 21 -6.3 6 -14.4 53 53 ESE 14 22 30.63 1037 10 16 0.00 0.00
11:15 am 11:15 undefined 21 -6 6 -14.4 52 52 SSE 14 22 30.63 1037 10 16 0.00 0.00
11:35 am 11:35 Cloudy 21 -6.1 6 -14.4 52 52 E 10 17 30.63 1037 10 16 0.00 0.00
11:55 am 11:55 Cloudy 22 -5.8 4 -15.3 47 47 SE 12 19 30.62 1037 10 16 0.00 0.00
12:15 pm 12:15 Cloudy 22 -5.7 4 -15.4 47 47 SE 9 15 30.61 1037 10 16 0.00 0.00
12:35 pm 12:35 Cloudy 22 -5.4 4 -15.3 46 46 ESE 14 22 30.60 1036 10 16 0.00 0.00
12:55 pm 12:55 Cloudy 22 -5.7 4 -15.3 47 47 ESE 10 17 30.59 1036 10 16 0.00 0.00
1:15 pm 13:15 Mostly Cloudy 21 -6 4 -15.3 48 48 ESE 9 15 30.59 1036 10 16 0.00 0.00
1:35 pm 13:35 Mostly Cloudy 24 -4.3 5 -14.8 44 44 ESE 12 19 30.58 1035 10 16 0.00 0.00
1:55 pm 13:55 Mostly Cloudy 22 -5.8 4 -15.4 47 47 ENE 9 15 30.57 1035 10 16 0.00 0.00
2:15 pm 14:15 Mostly Cloudy 22 -5.7 4 -15.4 47 47 E 7 11 30.57 1035 10 16 0.00 0.00
2:35 pm 14:35 Partly Cloudy 23 -4.9 5 -15.1 45 45 E 12 19 30.57 1035 10 16 0.00 0.00
2:55 pm 14:55 Partly Cloudy 23 -4.8 6 -14.7 46 46 E 12 19 30.56 1035 10 16 0.00 0.00
3:15 pm 15:15 Partly Cloudy 22 -5.7 5 -15.1 48 48 E 8 13 30.56 1035 10 16 0.00 0.00
3:35 pm 15:35 Sunny 23 -4.9 5 -15.2 45 45 E 6 9 30.56 1035 10 16 0.00 0.00
3:55 pm 15:55 Sunny 23 -5.1 5 -15.2 45 45 ESE 8 13 30.56 1035 10 16 0.00 0.00
4:15 pm 16:15 Sunny 23 -4.9 5 -14.9 46 46 ESE 9 15 30.56 1035 10 16 0.00 0.00
4:35 pm 16:35 Sunny 23 -5.2 5 -15 46 46 E 8 13 30.56 1035 10 16 0.00 0.00
4:55 pm 16:55 Sunny 23 -5.2 6 -14.4 49 49 ESE 8 13 30.56 1035 10 16 0.00 0.00
5:15 pm 17:15 Sunny 22 -5.7 6 -14.6 50 50 ENE 9 15 30.56 1035 10 16 0.00 0.00
5:35 pm 17:35 Sunny 21 -6.2 6 -14.5 52 52 ESE 6 9 30.56 1035 10 16 0.00 0.00
5:55 pm 17:55 Clear 20 -6.8 6 -14.2 56 56 E 7 11 30.56 1035 10 16 0.00 0.00
6:15 pm 18:15 Clear 20 -6.6 7 -14 56 56 E 8 13 30.56 1035 10 16 0.00 0.00
6:35 pm 18:35 Clear 19 -7.5 7 -14 60 60 NE 6 9 30.57 1035 10 16 0.00 0.00
6:55 pm 18:55 Clear 18 -7.7 7 -14 61 61 NE 5 7 30.58 1035 10 16 0.00 0.00
7:15 pm 19:15 Clear 18 -8 7 -14.1 62 62 NE 3 6 30.58 1036 10 16 0.00 0.00
7:35 pm 19:35 Clear 18 -7.8 7 -13.8 62 62 NE 3 6 30.58 1035 10 16 0.00 0.00
7:55 pm 19:55 Clear 16 -9.1 8 -13.1 73 73 Calm 30.58 1036 10 16 0.00 0.00
8:15 pm 20:15 Clear 15 -9.7 9 -13 77 77 NNE 3 6 30.58 1036 10 16 0.00 0.00
8:35 pm 20:35 Clear 14 -10.1 9 -12.9 80 80 Calm 30.57 1035 10 16 0.00 0.00
8:55 pm 20:55 Clear 14 -10.2 9 -12.6 83 83 N 3 6 30.58 1036 10 16 0.00 0.00
9:15 pm 21:15 Clear 12 -11 8 -13.6 81 81 NE 5 7 30.58 1035 10 16 0.00 0.00
9:35 pm 21:35 Clear 14 -10.2 9 -12.9 81 81 NE 3 6 30.57 1035 10 16 0.00 0.00
9:55 pm 21:55 Clear 12 -11.3 8 -13.5 84 84 NNE 3 6 30.58 1035 10 16 0.00 0.00
10:15 pm 22:15 Clear 11 -11.8 7 -14 84 84 Calm 30.58 1036 10 16 0.00 0.00
10:35 pm 22:35 Clear 10 -12.1 7 -14.1 85 85 NNE 3 6 30.58 1036 10 16 0.00 0.00
10:55 pm 22:55 Clear 10 -12.2 7 -14 87 87 Calm 30.57 1035 10 16 0.00 0.00
11:15 pm 23:15 Clear 10 -12.2 6 -14.2 85 85 NNE 5 7 30.56 1035 10 16 0.00 0.00
11:35 pm 23:35 Clear 9 -12.7 6 -14.4 87 87 Calm 30.56 1035 10 16 0.00 0.00
11:55 pm 23:55 Clear 9 -12.6 6 -14.3 87 87 Calm 30.55 1035 10 16 0.00 0.00

Powered by AerisWeather